DECAYED

STARLINK-1093, 44970 (Decayed)

Orbit data source: Space-Track

STARLINK-1093, 44970 was a payload satellite owned by SpaceX/Seattle (US) in LEO that was launched on Tue, 07 Jan 2020 UTC via an FALCON 9 launch vehicle from the Air Force Eastern Test Range (AFETR). Payload-class satellites include a variety of spacecraft equipped with specific instruments for various scientific and technological missions. These include communications satellites like Starlink; space stations such as the ISS; scientific satellites like the Hubble; Earth observation satellites from companies like Planet Labs, Umbra, and HawkEye 360; GPS; miniature CubeSats for education and research; and military/defense satellites.

Not visible in the next 10 days
Identifier
44970, 2020-001BJ
Orbit
Decayed
Country
Flag of USUS
Related business
Manufacturer
SpaceX/Seattle
Mission
Decayed Commercial Communications
Bus & Motor
STARLINK, Unknown motor
Mass
260 kg wet, ~248 kg dry
Launch date (UTC)
2020-01-07 (6 years ago)
Launch vehicle
FALCON 9
Launch site
Air Force Eastern Test Range (AFETR)
Object type
Payload
Rocket body
Debris
Shape & HBR
Box + 1 Pan, 10.1 m
Radar Cross Section
13.562 m², Large (>1 m²)

Expand to show TLE details & history
Last TLE update: 9 months ago

TLE from 9 months ago
0 STARLINK-1093
1 44970U 20001BJ  25223.28192803  .09729043  12557-4  19451-3 0  9995
2 44970  53.0216  53.9349 0008544 275.5636 255.6109 16.46500284310313
Epoch: 2025-08-11T06:45Z
TLE epoch observation values (Epoch: 2025-08-11T06:45:58.581Z)
Latitude
7.07823°
Longitude
167.11593°
Altitude
150.243 km
Speed
7.817 km/s
True Right ascension
15h 14m 24s
True Declination
7° 01' 57"
Sunlit
Object was in daylight at epoch
Visualization orbit readout
Latitude
Unknown
Longitude
Unknown
Altitude
Unknown
Speed
Unknown
Apparent Right ascension
Unknown
Apparent Declination
Unknown
Sunlit
N/A
Visualization observer readout
Local Sidereal Time
13:25:18
Azimuth
Unknown
Elevation
Unknown
Doppler factor
Unknown
Orbital elements
Apogee altitude
154.437 km
Perigee altitude
143.283 km
Semi-major axis
6,526.997 km
Eccentricity
0.00085
Inclination
53.0216°
RAAN
53.9349°
Arg. of periapsis
275.5636°
True anomaly
255.51609°
Mean anomaly
255.6109°
Eccentric anomaly
255.56349°
Mean motion
4.11598 °/min
Orbital period
87.46 mins
BSTAR
0.00019451
Loading maneuver chart data...
Computing Atmospheric mass density...

Documentation

Showing up to 5 results
|